Climatologie pour Saint-Brevin les Pins
Jour • Résumé pour juillet 11, 2017 Système :  Métrique    Anglais   Mixte
« - 1 jour
+ 1 jour »
Jour Semaine Mois Année Personnalisé
  Maximum : Minimum : Moyenne :
Température sous abri : 22.7 °C 16.3 °C 19 °C
Point de rosée : 17.8 °C 13.8 °C 15.5 °C
Humidité : 97 % 66 % 81 %
Vitesse du vent : 24.1 km/h 0.0 km/h 8.4 km/h
Rafale : 30.6 km/h - -
Direction :- - WSW
Pression : 1014.8 hPa 1012.4 hPa -
Précipitations : 1.5 mm    
Historical Graphs
 
 
Tableau de données pour juillet 11, 2017
Heure Tempé Pt rosée Pression Vent Vitesse Rafale Humidité Taux pluie (/hr) Soleil
00:00 17.6 °C 15.2 °C 1014.8 hPa WNW 3.2 km/h 17.7 km/h 86 % 0.0 mm 0 W/m2
00:10 17.4 °C 15.1 °C 1014.8 hPa West 4.8 km/h 19.3 km/h 86 % 0.0 mm 0 W/m2
00:15 17.3 °C 14.8 °C 1014.8 hPa WNW 3.2 km/h 14.5 km/h 85 % 0.0 mm 0 W/m2
00:20 17.3 °C 14.7 °C 1014.8 hPa West 4.8 km/h 12.9 km/h 85 % 0.0 mm 0 W/m2
00:25 17.2 °C 14.9 °C 1014.8 hPa WNW 14.5 km/h 16.1 km/h 86 % 0.0 mm 0 W/m2
00:30 17.3 °C 14.7 °C 1014.8 hPa WNW 9.7 km/h 16.1 km/h 85 % 0.0 mm 0 W/m2
00:35 17.3 °C 15.0 °C 1014.8 hPa WNW 6.4 km/h 16.1 km/h 86 % 0.0 mm 0 W/m2
00:40 17.3 °C 15.0 °C 1014.8 hPa WNW 4.8 km/h 16.1 km/h 86 % 0.0 mm 0 W/m2
00:45 17.3 °C 14.9 °C 1014.8 hPa West 6.4 km/h 17.7 km/h 86 % 0.0 mm 0 W/m2
00:50 17.3 °C 14.9 °C 1014.8 hPa West 3.2 km/h 17.7 km/h 86 % 0.0 mm 0 W/m2
00:55 17.2 °C 15.0 °C 1014.8 hPa West 3.2 km/h 12.9 km/h 87 % 0.0 mm 0 W/m2
01:00 17.2 °C 15.0 °C 1014.8 hPa West 4.8 km/h 12.9 km/h 87 % 0.0 mm 0 W/m2
01:05 17.2 °C 15.0 °C 1014.8 hPa WNW 4.8 km/h 12.9 km/h 87 % 0.0 mm 0 W/m2
01:10 17.2 °C 15.0 °C 1014.8 hPa West 6.4 km/h 14.5 km/h 87 % 0.0 mm 0 W/m2
01:15 17.2 °C 15.0 °C 1014.8 hPa West 8.0 km/h 14.5 km/h 87 % 0.0 mm 0 W/m2
01:20 17.3 °C 14.9 °C 1014.8 hPa WNW 8.0 km/h 12.9 km/h 86 % 0.0 mm 0 W/m2
01:25 17.3 °C 14.9 °C 1014.8 hPa West 3.2 km/h 16.1 km/h 86 % 0.0 mm 0 W/m2
01:30 17.3 °C 14.8 °C 1014.8 hPa WSW 8.0 km/h 17.7 km/h 85 % 0.0 mm 0 W/m2
01:35 17.3 °C 14.8 °C 1014.8 hPa WNW 8.0 km/h 17.7 km/h 85 % 0.0 mm 0 W/m2
01:40 17.3 °C 14.7 °C 1014.8 hPa West 3.2 km/h 16.1 km/h 85 % 0.0 mm 0 W/m2
01:45 17.3 °C 14.7 °C 1014.8 hPa West 3.2 km/h 16.1 km/h 85 % 0.0 mm 0 W/m2
01:50 17.4 °C 14.8 °C 1014.8 hPa West 4.8 km/h 20.9 km/h 85 % 0.0 mm 0 W/m2
01:55 17.4 °C 14.9 °C 1014.8 hPa West 9.7 km/h 20.9 km/h 85 % 0.0 mm 0 W/m2
02:00 17.4 °C 14.9 °C 1014.8 hPa NW 1.6 km/h 14.5 km/h 85 % 0.0 mm 0 W/m2
02:05 17.4 °C 15.1 °C 1014.8 hPa NW 11.3 km/h 14.5 km/h 86 % 0.0 mm 0 W/m2
02:10 17.4 °C 15.1 °C 1014.8 hPa NW 12.9 km/h 20.9 km/h 86 % 0.0 mm 0 W/m2
02:15 17.4 °C 15.1 °C 1014.8 hPa WNW 4.8 km/h 20.9 km/h 86 % 0.0 mm 0 W/m2
02:20 17.3 °C 15.1 °C 1014.8 hPa West 4.8 km/h 14.5 km/h 87 % 0.0 mm 0 W/m2
02:25 17.3 °C 15.1 °C 1014.8 hPa WNW 1.6 km/h 14.5 km/h 87 % 0.0 mm 0 W/m2
02:30 17.3 °C 15.3 °C 1014.8 hPa West 3.2 km/h 12.9 km/h 88 % 0.0 mm 0 W/m2
02:35 17.2 °C 15.2 °C 1014.8 hPa WNW 8.0 km/h 11.3 km/h 88 % 0.0 mm 0 W/m2
02:40 17.3 °C 15.3 °C 1014.4 hPa WNW 6.4 km/h 16.1 km/h 88 % 0.0 mm 0 W/m2
02:45 17.2 °C 15.0 °C 1014.4 hPa West 6.4 km/h 16.1 km/h 87 % 0.0 mm 0 W/m2
02:50 17.2 °C 15.0 °C 1014.4 hPa West 8.0 km/h 16.1 km/h 87 % 0.0 mm 0 W/m2
02:55 17.1 °C 15.1 °C 1014.4 hPa WNW 8.0 km/h 16.1 km/h 88 % 0.0 mm 0 W/m2
03:00 17.0 °C 15.2 °C 1014.4 hPa West 3.2 km/h 12.9 km/h 89 % 0.0 mm 0 W/m2
03:05 16.9 °C 15.1 °C 1014.4 hPa West 1.6 km/h 12.9 km/h 89 % 0.0 mm 0 W/m2
03:10 16.8 °C 15.1 °C 1014.1 hPa West 8.0 km/h 12.9 km/h 90 % 0.0 mm 0 W/m2
03:15 16.7 °C 15.2 °C 1014.1 hPa Calm   12.9 km/h 91 % 0.0 mm 0 W/m2
03:20 16.6 °C 15.1 °C 1014.1 hPa Calm   8.0 km/h 91 % 0.0 mm 0 W/m2
03:25 16.5 °C 15.0 °C 1014.1 hPa West 6.4 km/h 8.0 km/h 91 % 0.0 mm 0 W/m2
03:30 16.6 °C 15.1 °C 1014.1 hPa West 3.2 km/h 9.7 km/h 91 % 0.0 mm 0 W/m2
03:35 16.4 °C 15.1 °C 1014.1 hPa West 1.6 km/h 9.7 km/h 92 % 0.0 mm 0 W/m2
03:40 16.5 °C 15.0 °C 1013.8 hPa West 1.6 km/h 6.4 km/h 91 % 0.0 mm 0 W/m2
03:45 16.4 °C 15.1 °C 1014.1 hPa Calm   6.4 km/h 92 % 0.0 mm 0 W/m2
03:50 16.4 °C 15.1 °C 1014.1 hPa WSW 1.6 km/h 8.0 km/h 92 % 0.0 mm 0 W/m2
03:55 16.4 °C 15.0 °C 1014.1 hPa West 3.2 km/h 8.0 km/h 91 % 0.0 mm 0 W/m2
04:00 16.4 °C 15.0 °C 1014.1 hPa Calm   8.0 km/h 91 % 0.0 mm 0 W/m2
04:05 16.3 °C 14.9 °C 1014.1 hPa WNW 6.4 km/h 8.0 km/h 91 % 0.0 mm 0 W/m2
04:10 16.3 °C 14.8 °C 1014.1 hPa West 4.8 km/h 9.7 km/h 91 % 0.0 mm 0 W/m2
04:15 16.3 °C 14.8 °C 1014.1 hPa WSW 8.0 km/h 9.7 km/h 91 % 0.0 mm 0 W/m2
04:20 16.5 °C 15.0 °C 1014.1 hPa WSW 4.8 km/h 11.3 km/h 91 % 0.0 mm 0 W/m2
04:25 16.7 °C 15.1 °C 1014.1 hPa WNW 6.4 km/h 12.9 km/h 90 % 0.0 mm 0 W/m2
04:30 16.8 °C 15.1 °C 1014.1 hPa West 1.6 km/h 12.9 km/h 90 % 0.0 mm 0 W/m2
04:35 16.8 °C 15.2 °C 1014.1 hPa WNW 6.4 km/h 11.3 km/h 90 % 0.0 mm 0 W/m2
04:40 16.9 °C 15.1 °C 1014.1 hPa West 1.6 km/h 11.3 km/h 89 % 0.0 mm 0 W/m2
04:45 16.8 °C 15.2 °C 1014.1 hPa Calm   11.3 km/h 90 % 0.0 mm 0 W/m2
04:50 16.8 °C 15.2 °C 1014.1 hPa West 3.2 km/h 11.3 km/h 90 % 0.0 mm 0 W/m2
04:55 16.7 °C 15.1 °C 1014.1 hPa WSW 4.8 km/h 9.7 km/h 90 % 0.0 mm 0 W/m2
05:00 16.7 °C 15.1 °C 1014.1 hPa WSW 3.2 km/h 9.7 km/h 90 % 0.0 mm 0 W/m2
05:05 16.7 °C 15.1 °C 1014.1 hPa WSW 1.6 km/h 6.4 km/h 90 % 0.0 mm 0 W/m2
05:10 16.7 °C 15.0 °C 1014.1 hPa Calm   6.4 km/h 90 % 0.0 mm 0 W/m2
05:20 16.7 °C 15.1 °C 1013.8 hPa WSW 4.8 km/h 9.7 km/h 90 % 0.0 mm 0 W/m2
05:25 16.7 °C 15.1 °C 1013.8 hPa WSW 3.2 km/h 9.7 km/h 90 % 0.0 mm 0 W/m2
05:30 16.8 °C 15.1 °C 1013.8 hPa SW 1.6 km/h 6.4 km/h 90 % 0.0 mm 0 W/m2
05:35 16.9 °C 15.2 °C 1013.8 hPa WSW 4.8 km/h 6.4 km/h 90 % 0.0 mm 0 W/m2
05:40 16.9 °C 15.1 °C 1013.8 hPa WSW 1.6 km/h 8.0 km/h 89 % 0.0 mm 0 W/m2
05:45 16.9 °C 15.1 °C 1013.8 hPa Calm   8.0 km/h 89 % 0.0 mm 0 W/m2
05:50 16.8 °C 15.0 °C 1013.8 hPa West 3.2 km/h 8.0 km/h 89 % 0.0 mm 0 W/m2
05:55 17.0 °C 14.8 °C 1013.8 hPa West 8.0 km/h 12.9 km/h 87 % 0.0 mm 0 W/m2
06:00 17.2 °C 14.9 °C 1013.8 hPa West 8.0 km/h 16.1 km/h 86 % 0.0 mm 0 W/m2
06:05 17.3 °C 14.5 °C 1013.8 hPa West 9.7 km/h 17.7 km/h 84 % 0.0 mm 0 W/m2
06:10 17.3 °C 14.4 °C 1013.8 hPa West 4.8 km/h 17.7 km/h 83 % 0.0 mm 0 W/m2
06:15 17.4 °C 14.5 °C 1013.8 hPa WNW 6.4 km/h 14.5 km/h 83 % 0.0 mm 0 W/m2
06:20 17.5 °C 14.4 °C 1013.8 hPa Calm   16.1 km/h 82 % 0.0 mm 0 W/m2
06:25 17.5 °C 14.2 °C 1013.8 hPa SW 6.4 km/h 16.1 km/h 81 % 0.0 mm 0 W/m2
06:30 17.5 °C 14.4 °C 1013.8 hPa West 3.2 km/h 14.5 km/h 82 % 0.0 mm 0 W/m2
06:35 17.5 °C 14.4 °C 1013.8 hPa West 1.6 km/h 12.9 km/h 82 % 0.0 mm 5 W/m2
06:40 17.6 °C 14.4 °C 1013.8 hPa West 6.4 km/h 14.5 km/h 82 % 0.0 mm 5 W/m2
06:45 17.6 °C 14.5 °C 1013.8 hPa West 6.4 km/h 19.3 km/h 82 % 0.0 mm 9 W/m2
06:50 17.6 °C 14.5 °C 1013.8 hPa West 8.0 km/h 19.3 km/h 82 % 0.0 mm 16 W/m2
06:55 17.6 °C 14.3 °C 1014.1 hPa NW 6.4 km/h 17.7 km/h 81 % 0.0 mm 18 W/m2
07:00 17.5 °C 14.2 °C 1014.1 hPa WNW 8.0 km/h 20.9 km/h 81 % 0.0 mm 19 W/m2
07:05 17.6 °C 13.9 °C 1014.1 hPa SW 8.0 km/h 20.9 km/h 79 % 0.0 mm 18 W/m2
07:10 17.6 °C 14.1 °C 1013.8 hPa West 8.0 km/h 22.5 km/h 80 % 0.0 mm 18 W/m2
07:15 17.5 °C 14.0 °C 1014.1 hPa Calm   22.5 km/h 80 % 0.0 mm 19 W/m2
07:20 17.5 °C 13.8 °C 1014.1 hPa WSW 11.3 km/h 17.7 km/h 79 % 0.0 mm 28 W/m2
07:25 17.6 °C 13.9 °C 1013.8 hPa WNW 1.6 km/h 17.7 km/h 79 % 0.0 mm 37 W/m2
07:30 17.6 °C 13.9 °C 1014.1 hPa NW 8.0 km/h 17.7 km/h 79 % 0.0 mm 47 W/m2
07:35 17.6 °C 13.9 °C 1014.1 hPa WNW 1.6 km/h 17.7 km/h 79 % 0.0 mm 58 W/m2
07:40 17.7 °C 14.0 °C 1014.1 hPa NW 8.0 km/h 16.1 km/h 79 % 0.0 mm 74 W/m2
07:45 17.8 °C 14.1 °C 1014.1 hPa West 4.8 km/h 19.3 km/h 79 % 0.0 mm 79 W/m2
07:50 17.8 °C 14.3 °C 1014.1 hPa West 4.8 km/h 19.3 km/h 80 % 0.0 mm 83 W/m2
07:55 17.9 °C 14.4 °C 1014.1 hPa West 3.2 km/h 12.9 km/h 80 % 0.0 mm 90 W/m2
08:00 17.9 °C 14.4 °C 1014.1 hPa Calm   12.9 km/h 80 % 0.0 mm 84 W/m2
08:05 17.9 °C 14.2 °C 1013.8 hPa WSW 1.6 km/h 16.1 km/h 79 % 0.0 mm 81 W/m2
08:10 17.9 °C 14.2 °C 1014.1 hPa WSW 4.8 km/h 16.1 km/h 79 % 0.0 mm 102 W/m2
08:15 18.1 °C 14.2 °C 1014.1 hPa West 3.2 km/h 16.1 km/h 78 % 0.0 mm 105 W/m2
08:20 18.1 °C 14.2 °C 1014.1 hPa West 6.4 km/h 14.5 km/h 78 % 0.0 mm 83 W/m2
08:30 18.1 °C 14.4 °C 1014.1 hPa West 8.0 km/h 14.5 km/h 79 % 0.0 mm 76 W/m2
08:35 18.1 °C 14.4 °C 1014.1 hPa NW 4.8 km/h 14.5 km/h 79 % 0.0 mm 84 W/m2
08:40 18.1 °C 14.2 °C 1014.1 hPa West 6.4 km/h 14.5 km/h 78 % 0.0 mm 86 W/m2
08:45 18.1 °C 14.2 °C 1014.1 hPa WNW 8.0 km/h 12.9 km/h 78 % 0.0 mm 91 W/m2
08:50 18.2 °C 14.3 °C 1014.1 hPa West 4.8 km/h 16.1 km/h 78 % 0.0 mm 137 W/m2
08:55 18.3 °C 14.2 °C 1014.1 hPa West 4.8 km/h 17.7 km/h 77 % 0.0 mm 167 W/m2
09:00 18.5 °C 14.2 °C 1014.1 hPa WSW 8.0 km/h 17.7 km/h 76 % 0.0 mm 218 W/m2
09:05 18.7 °C 14.3 °C 1014.1 hPa SW 12.9 km/h 17.7 km/h 76 % 0.0 mm 206 W/m2
09:10 18.7 °C 13.8 °C 1014.1 hPa WSW 12.9 km/h 20.9 km/h 73 % 0.0 mm 207 W/m2
09:15 18.8 °C 14.1 °C 1014.1 hPa SW 8.0 km/h 20.9 km/h 74 % 0.0 mm 209 W/m2
09:20 18.9 °C 14.2 °C 1014.1 hPa WSW 8.0 km/h 16.1 km/h 74 % 0.0 mm 218 W/m2
09:25 19.1 °C 14.6 °C 1014.1 hPa WSW 12.9 km/h 16.1 km/h 75 % 0.0 mm 239 W/m2
09:30 19.2 °C 14.9 °C 1014.1 hPa WSW 4.8 km/h 14.5 km/h 76 % 0.0 mm 202 W/m2
09:35 19.1 °C 14.6 °C 1014.1 hPa WNW 4.8 km/h 14.5 km/h 75 % 0.0 mm 206 W/m2
09:40 19.0 °C 14.7 °C 1014.1 hPa WSW 1.6 km/h 14.5 km/h 76 % 0.0 mm 225 W/m2
09:45 19.2 °C 15.1 °C 1014.1 hPa WSW 4.8 km/h 12.9 km/h 77 % 0.0 mm 193 W/m2
09:50 19.2 °C 14.9 °C 1014.4 hPa SW 1.6 km/h 16.1 km/h 76 % 0.0 mm 283 W/m2
09:55 19.3 °C 14.7 °C 1014.1 hPa WSW 14.5 km/h 16.1 km/h 75 % 0.0 mm 243 W/m2
10:00 19.3 °C 15.0 °C 1014.1 hPa NNW 4.8 km/h 16.1 km/h 76 % 0.0 mm 248 W/m2
10:05 19.3 °C 14.7 °C 1014.1 hPa SSW 9.7 km/h 16.1 km/h 75 % 0.0 mm 299 W/m2
10:10 19.7 °C 15.1 °C 1014.1 hPa WSW 9.7 km/h 16.1 km/h 75 % 0.0 mm 383 W/m2
10:15 19.9 °C 15.1 °C 1014.1 hPa WSW 8.0 km/h 19.3 km/h 74 % 0.0 mm 329 W/m2
10:20 19.8 °C 15.1 °C 1014.1 hPa SW 6.4 km/h 19.3 km/h 74 % 0.0 mm 281 W/m2
10:25 19.7 °C 15.3 °C 1014.1 hPa WSW 4.8 km/h 19.3 km/h 76 % 0.0 mm 311 W/m2
10:30 19.8 °C 15.7 °C 1014.1 hPa West 4.8 km/h 19.3 km/h 77 % 0.0 mm 657 W/m2
10:35 20.7 °C 16.1 °C 1014.1 hPa WSW 14.5 km/h 24.1 km/h 75 % 0.0 mm 626 W/m2
10:40 20.6 °C 14.9 °C 1014.1 hPa NW 11.3 km/h 27.4 km/h 70 % 0.0 mm 631 W/m2
10:45 20.8 °C 14.9 °C 1014.1 hPa SSW 9.7 km/h 29.0 km/h 69 % 0.0 mm 654 W/m2
10:50 20.6 °C 14.9 °C 1014.1 hPa West 8.0 km/h 29.0 km/h 70 % 0.0 mm 701 W/m2
10:55 20.6 °C 14.9 °C 1014.1 hPa SW 20.9 km/h 22.5 km/h 70 % 0.0 mm 297 W/m2
11:00 20.3 °C 14.8 °C 1014.1 hPa West 11.3 km/h 22.5 km/h 71 % 0.0 mm 424 W/m2
11:05 20.3 °C 15.1 °C 1014.1 hPa SW 11.3 km/h 20.9 km/h 72 % 0.0 mm 373 W/m2
11:10 20.2 °C 15.2 °C 1014.1 hPa West 20.9 km/h 22.5 km/h 73 % 0.0 mm 334 W/m2
11:15 20.3 °C 15.5 °C 1014.1 hPa West 14.5 km/h 27.4 km/h 74 % 0.0 mm 499 W/m2
11:25 20.8 °C 15.4 °C 1014.1 hPa WSW 8.0 km/h 25.7 km/h 71 % 0.0 mm 589 W/m2
11:30 20.7 °C 15.3 °C 1014.4 hPa WSW 17.7 km/h 25.7 km/h 71 % 0.0 mm 659 W/m2
11:35 20.9 °C 15.4 °C 1014.1 hPa West 12.9 km/h 25.7 km/h 71 % 0.0 mm 536 W/m2
11:40 21.1 °C 15.1 °C 1014.1 hPa WSW 8.0 km/h 24.1 km/h 69 % 0.0 mm 478 W/m2
11:45 20.9 °C 15.0 °C 1014.1 hPa WSW 11.3 km/h 27.4 km/h 69 % 0.0 mm 499 W/m2
11:50 20.7 °C 15.0 °C 1014.1 hPa West 9.7 km/h 27.4 km/h 70 % 0.0 mm 555 W/m2
11:55 20.8 °C 15.2 °C 1014.4 hPa SW 12.9 km/h 24.1 km/h 70 % 0.0 mm 527 W/m2
12:00 20.7 °C 15.2 °C 1014.4 hPa SW 20.9 km/h 25.7 km/h 71 % 0.0 mm 552 W/m2
12:05 20.9 °C 15.7 °C 1014.4 hPa West 8.0 km/h 25.7 km/h 72 % 0.0 mm 835 W/m2
12:10 21.8 °C 15.8 °C 1014.1 hPa West 9.7 km/h 24.1 km/h 69 % 0.0 mm 814 W/m2
12:15 21.8 °C 15.2 °C 1014.1 hPa West 6.4 km/h 24.1 km/h 66 % 0.0 mm 833 W/m2
12:20 22.3 °C 15.9 °C 1014.1 hPa WSW 11.3 km/h 27.4 km/h 67 % 0.0 mm 861 W/m2
12:25 22.2 °C 15.5 °C 1014.1 hPa West 3.2 km/h 27.4 km/h 66 % 0.0 mm 800 W/m2
12:30 21.9 °C 15.3 °C 1014.4 hPa West 11.3 km/h 20.9 km/h 66 % 0.0 mm 443 W/m2
12:35 21.2 °C 15.1 °C 1014.4 hPa West 9.7 km/h 24.1 km/h 68 % 0.0 mm 661 W/m2
12:40 21.7 °C 15.7 °C 1014.4 hPa WSW 6.4 km/h 24.1 km/h 69 % 0.0 mm 640 W/m2
12:45 22.1 °C 15.9 °C 1014.1 hPa NNW 11.3 km/h 24.1 km/h 68 % 0.0 mm 594 W/m2
12:50 21.8 °C 15.4 °C 1014.4 hPa WSW 14.5 km/h 20.9 km/h 67 % 0.0 mm 645 W/m2
13:00 20.9 °C 15.2 °C 1014.4 hPa SW 3.2 km/h 25.7 km/h 70 % 0.0 mm 288 W/m2
13:05 20.5 °C 15.1 °C 1014.4 hPa West 12.9 km/h 25.7 km/h 71 % 0.0 mm 281 W/m2
13:10 20.3 °C 15.3 °C 1014.4 hPa West 14.5 km/h 20.9 km/h 73 % 0.0 mm 278 W/m2
13:15 20.4 °C 15.2 °C 1014.4 hPa West 19.3 km/h 24.1 km/h 72 % 0.0 mm 529 W/m2
13:20 21.0 °C 15.3 °C 1014.4 hPa WSW 12.9 km/h 27.4 km/h 70 % 0.0 mm 348 W/m2
13:25 20.7 °C 15.2 °C 1014.4 hPa WSW 14.5 km/h 27.4 km/h 71 % 0.0 mm 336 W/m2
13:30 20.8 °C 15.3 °C 1014.4 hPa WSW 9.7 km/h 24.1 km/h 71 % 0.0 mm 712 W/m2
13:35 21.3 °C 15.6 °C 1014.4 hPa WSW 8.0 km/h 22.5 km/h 70 % 0.0 mm 613 W/m2
13:40 21.9 °C 16.2 °C 1014.4 hPa SW 12.9 km/h 22.5 km/h 70 % 0.0 mm 719 W/m2
13:45 22.1 °C 16.2 °C 1014.4 hPa WSW 6.4 km/h 22.5 km/h 69 % 0.0 mm 905 W/m2
13:50 21.7 °C 15.8 °C 1014.4 hPa WSW 9.7 km/h 25.7 km/h 69 % 0.0 mm 571 W/m2
13:55 21.6 °C 15.6 °C 1014.4 hPa WSW 14.5 km/h 25.7 km/h 69 % 0.0 mm 758 W/m2
14:00 21.5 °C 15.1 °C 1014.4 hPa WSW 12.9 km/h 25.7 km/h 67 % 0.0 mm 496 W/m2
14:05 21.2 °C 15.5 °C 1014.1 hPa WSW 17.7 km/h 25.7 km/h 70 % 0.0 mm 561 W/m2
14:10 21.0 °C 15.5 °C 1014.4 hPa WSW 20.9 km/h 24.1 km/h 71 % 0.0 mm 522 W/m2
14:15 21.3 °C 15.6 °C 1014.1 hPa WSW 9.7 km/h 24.1 km/h 70 % 0.0 mm 592 W/m2
14:20 21.3 °C 15.4 °C 1014.4 hPa West 12.9 km/h 24.1 km/h 69 % 0.0 mm 373 W/m2
14:25 20.7 °C 15.1 °C 1014.4 hPa NW 16.1 km/h 20.9 km/h 70 % 0.0 mm 172 W/m2
14:30 20.3 °C 15.1 °C 1014.1 hPa SW 9.7 km/h 25.7 km/h 72 % 0.0 mm 207 W/m2
14:35 20.1 °C 15.3 °C 1014.4 hPa WSW 11.3 km/h 25.7 km/h 74 % 0.0 mm 248 W/m2
14:40 20.3 °C 15.5 °C 1014.1 hPa WSW 8.0 km/h 27.4 km/h 74 % 0.0 mm 350 W/m2
14:45 20.4 °C 15.6 °C 1014.1 hPa WSW 22.5 km/h 27.4 km/h 74 % 0.0 mm 234 W/m2
14:50 20.2 °C 15.6 °C 1014.1 hPa South 6.4 km/h 22.5 km/h 75 % 0.0 mm 244 W/m2
14:55 20.4 °C 16.0 °C 1014.1 hPa SSE 3.2 km/h 22.5 km/h 76 % 0.0 mm 517 W/m2
15:00 21.6 °C 16.7 °C 1014.1 hPa SW 4.8 km/h 24.1 km/h 74 % 0.0 mm 963 W/m2
15:05 22.5 °C 16.1 °C 1014.1 hPa West 17.7 km/h 29.0 km/h 67 % 0.0 mm 995 W/m2
15:10 22.7 °C 16.0 °C 1014.4 hPa WSW 14.5 km/h 29.0 km/h 66 % 0.0 mm 940 W/m2
15:15 22.3 °C 15.9 °C 1014.4 hPa SSW 11.3 km/h 24.1 km/h 67 % 0.0 mm 926 W/m2
15:20 22.3 °C 15.9 °C 1014.4 hPa SW 24.1 km/h 25.7 km/h 67 % 0.0 mm 854 W/m2
15:25 22.3 °C 15.9 °C 1014.1 hPa West 3.2 km/h 25.7 km/h 67 % 0.0 mm 766 W/m2
15:30 22.6 °C 16.4 °C 1014.1 hPa SW 12.9 km/h 20.9 km/h 68 % 0.0 mm 986 W/m2
15:35 22.7 °C 16.5 °C 1014.1 hPa West 9.7 km/h 27.4 km/h 68 % 0.0 mm 986 W/m2
15:40 22.2 °C 15.8 °C 1014.4 hPa WSW 16.1 km/h 27.4 km/h 67 % 0.0 mm 571 W/m2
15:45 22.3 °C 16.3 °C 1014.1 hPa WSW 6.4 km/h 27.4 km/h 69 % 0.0 mm 888 W/m2
15:50 22.3 °C 16.4 °C 1014.1 hPa West 4.8 km/h 22.5 km/h 69 % 0.0 mm 900 W/m2
15:55 22.7 °C 16.5 °C 1014.1 hPa SW 11.3 km/h 22.5 km/h 68 % 0.0 mm 868 W/m2
16:00 22.3 °C 16.3 °C 1014.1 hPa WSW 17.7 km/h 22.5 km/h 69 % 0.0 mm 821 W/m2
16:05 22.1 °C 16.3 °C 1014.1 hPa SW 16.1 km/h 29.0 km/h 70 % 0.0 mm 798 W/m2
16:10 22.1 °C 16.1 °C 1014.1 hPa SW 16.1 km/h 29.0 km/h 69 % 0.0 mm 740 W/m2
16:15 22.1 °C 16.3 °C 1014.1 hPa WSW 20.9 km/h 27.4 km/h 70 % 0.0 mm 828 W/m2
16:20 22.4 °C 16.6 °C 1014.1 hPa WNW 6.4 km/h 25.7 km/h 70 % 0.0 mm 515 W/m2
16:25 21.7 °C 16.0 °C 1014.1 hPa WNW 9.7 km/h 27.4 km/h 70 % 0.0 mm 269 W/m2
16:30 21.6 °C 16.3 °C 1014.1 hPa WSW 11.3 km/h 30.6 km/h 72 % 0.0 mm 738 W/m2
16:35 21.0 °C 16.0 °C 1014.1 hPa SW 17.7 km/h 30.6 km/h 73 % 0.0 mm 232 W/m2
16:40 20.8 °C 16.0 °C 1014.1 hPa West 3.2 km/h 30.6 km/h 74 % 0.0 mm 397 W/m2
16:45 21.6 °C 16.8 °C 1014.1 hPa SSW 8.0 km/h 24.1 km/h 74 % 0.0 mm 809 W/m2
16:50 22.1 °C 16.1 °C 1014.1 hPa NW 9.7 km/h 24.1 km/h 69 % 0.0 mm 366 W/m2
16:55 21.9 °C 16.4 °C 1014.1 hPa SW 4.8 km/h 24.1 km/h 71 % 0.0 mm 882 W/m2
17:00 22.4 °C 16.5 °C 1014.1 hPa WSW 14.5 km/h 19.3 km/h 69 % 0.0 mm 459 W/m2
17:05 21.7 °C 16.0 °C 1013.8 hPa SW 19.3 km/h 25.7 km/h 70 % 0.0 mm 494 W/m2
17:10 21.2 °C 15.7 °C 1013.8 hPa WSW 20.9 km/h 25.7 km/h 71 % 0.0 mm 374 W/m2
17:15 20.9 °C 15.7 °C 1013.8 hPa SW 8.0 km/h 22.5 km/h 72 % 0.0 mm 269 W/m2
17:20 20.9 °C 15.9 °C 1013.8 hPa West 14.5 km/h 22.5 km/h 73 % 0.0 mm 255 W/m2
17:25 20.9 °C 16.3 °C 1013.8 hPa SW 16.1 km/h 22.5 km/h 75 % 0.0 mm 221 W/m2
17:30 20.6 °C 16.0 °C 1013.8 hPa WSW 9.7 km/h 20.9 km/h 75 % 0.0 mm 192 W/m2
17:35 20.3 °C 15.9 °C 1013.8 hPa SSE 6.4 km/h 22.5 km/h 76 % 0.0 mm 146 W/m2
17:40 20.1 °C 15.9 °C 1013.8 hPa SW 11.3 km/h 22.5 km/h 77 % 0.0 mm 125 W/m2
17:45 19.9 °C 16.0 °C 1013.8 hPa West 6.4 km/h 22.5 km/h 78 % 0.0 mm 86 W/m2
17:50 19.9 °C 15.9 °C 1013.8 hPa WSW 11.3 km/h 22.5 km/h 78 % 0.0 mm 77 W/m2
17:55 19.6 °C 15.9 °C 1013.8 hPa WSW 4.8 km/h 22.5 km/h 79 % 0.0 mm 84 W/m2
18:00 19.6 °C 15.8 °C 1013.8 hPa South 4.8 km/h 20.9 km/h 79 % 0.0 mm 127 W/m2
18:05 19.7 °C 15.9 °C 1013.8 hPa SSW 8.0 km/h 20.9 km/h 79 % 0.0 mm 241 W/m2
18:10 20.0 °C 16.0 °C 1013.4 hPa West 8.0 km/h 27.4 km/h 78 % 0.0 mm 185 W/m2
18:15 20.1 °C 16.1 °C 1013.4 hPa SW 4.8 km/h 27.4 km/h 78 % 0.0 mm 267 W/m2
18:20 20.2 °C 16.3 °C 1013.4 hPa SW 4.8 km/h 17.7 km/h 78 % 0.0 mm 264 W/m2
18:25 20.3 °C 15.9 °C 1013.4 hPa West 9.7 km/h 22.5 km/h 76 % 0.0 mm 169 W/m2
18:30 20.0 °C 16.0 °C 1013.4 hPa WSW 12.9 km/h 22.5 km/h 78 % 0.0 mm 244 W/m2
18:35 20.1 °C 16.2 °C 1013.4 hPa WSW 14.5 km/h 22.5 km/h 78 % 0.0 mm 260 W/m2
18:40 20.2 °C 16.3 °C 1013.4 hPa SW 6.4 km/h 20.9 km/h 78 % 0.0 mm 97 W/m2
18:45 20.0 °C 16.0 °C 1013.4 hPa WSW 4.8 km/h 20.9 km/h 78 % 0.0 mm 181 W/m2
18:50 20.0 °C 16.0 °C 1013.4 hPa SSW 11.3 km/h 19.3 km/h 78 % 0.0 mm 141 W/m2
18:55 19.9 °C 15.9 °C 1013.4 hPa SSW 8.0 km/h 25.7 km/h 78 % 0.0 mm 134 W/m2
19:00 19.8 °C 15.8 °C 1013.1 hPa WSW 6.4 km/h 25.7 km/h 78 % 0.0 mm 134 W/m2
19:05 19.9 °C 16.1 °C 1013.1 hPa SW 11.3 km/h 24.1 km/h 79 % 0.0 mm 130 W/m2
19:10 19.8 °C 15.9 °C 1013.1 hPa WSW 12.9 km/h 24.1 km/h 78 % 0.0 mm 104 W/m2
19:15 19.7 °C 15.7 °C 1013.1 hPa WSW 11.3 km/h 24.1 km/h 78 % 0.0 mm 93 W/m2
19:20 19.7 °C 16.0 °C 1013.1 hPa SW 6.4 km/h 22.5 km/h 79 % 0.0 mm 81 W/m2
19:25 19.6 °C 15.9 °C 1013.1 hPa SSW 19.3 km/h 22.5 km/h 79 % 0.0 mm 70 W/m2
19:30 19.6 °C 15.8 °C 1013.1 hPa SSW 12.9 km/h 22.5 km/h 79 % 0.0 mm 74 W/m2
19:35 19.6 °C 16.0 °C 1013.1 hPa SW 3.2 km/h 20.9 km/h 80 % 0.0 mm 77 W/m2
19:40 19.7 °C 15.9 °C 1013.1 hPa South 6.4 km/h 24.1 km/h 79 % 0.0 mm 67 W/m2
19:45 19.6 °C 15.9 °C 1013.1 hPa SSW 16.1 km/h 24.1 km/h 79 % 0.0 mm 60 W/m2
19:50 19.6 °C 16.0 °C 1013.1 hPa WSW 8.0 km/h 19.3 km/h 80 % 0.0 mm 46 W/m2
19:55 19.4 °C 15.9 °C 1013.1 hPa WSW 14.5 km/h 29.0 km/h 80 % 0.0 mm 26 W/m2
20:00 19.3 °C 16.0 °C 1013.1 hPa SW 8.0 km/h 29.0 km/h 81 % 0.0 mm 28 W/m2
20:05 19.3 °C 15.9 °C 1013.1 hPa SW 8.0 km/h 29.0 km/h 81 % 0.0 mm 33 W/m2
20:10 19.2 °C 16.1 °C 1013.1 hPa South 9.7 km/h 29.0 km/h 82 % 0.0 mm 26 W/m2
20:15 19.2 °C 16.1 °C 1013.1 hPa SSW 8.0 km/h 22.5 km/h 82 % 0.0 mm 26 W/m2
20:20 19.2 °C 16.1 °C 1013.1 hPa SSW 9.7 km/h 19.3 km/h 82 % 0.0 mm 21 W/m2
20:25 19.2 °C 16.3 °C 1013.1 hPa Calm   27.4 km/h 83 % 0.0 mm 19 W/m2
20:30 19.2 °C 16.3 °C 1012.8 hPa SW 14.5 km/h 27.4 km/h 83 % 0.0 mm 21 W/m2
20:35 19.3 °C 16.3 °C 1012.8 hPa SSW 12.9 km/h 25.7 km/h 83 % 0.0 mm 19 W/m2
20:40 19.3 °C 16.5 °C 1012.8 hPa SSW 11.3 km/h 25.7 km/h 84 % 0.0 mm 16 W/m2
20:45 19.3 °C 16.5 °C 1012.8 hPa South 14.5 km/h 25.7 km/h 84 % 0.0 mm 14 W/m2
20:50 19.3 °C 16.5 °C 1012.8 hPa SW 24.1 km/h 29.0 km/h 84 % 0.0 mm 11 W/m2
20:55 19.3 °C 16.5 °C 1012.8 hPa South 9.7 km/h 29.0 km/h 84 % 0.0 mm 9 W/m2
21:00 19.3 °C 16.5 °C 1012.8 hPa South 9.7 km/h 24.1 km/h 84 % 0.0 mm 9 W/m2
21:05 19.3 °C 16.5 °C 1012.8 hPa South 9.7 km/h 24.1 km/h 84 % 0.0 mm 7 W/m2
21:10 19.2 °C 16.5 °C 1012.8 hPa SW 11.3 km/h 25.7 km/h 84 % 0.0 mm 9 W/m2
21:15 19.2 °C 16.5 °C 1013.1 hPa West 1.6 km/h 25.7 km/h 84 % 0.0 mm 9 W/m2
21:20 18.9 °C 16.7 °C 1013.1 hPa WSW 19.3 km/h 30.6 km/h 87 % 0.0 mm 5 W/m2
21:25 18.5 °C 16.7 °C 1012.8 hPa WSW 4.8 km/h 30.6 km/h 89 % 0.3 mm 0 W/m2
21:30 18.3 °C 16.8 °C 1012.8 hPa SW 11.3 km/h 29.0 km/h 91 % 0.3 mm 0 W/m2
21:35 18.1 °C 16.8 °C 1012.8 hPa SSW 6.4 km/h 29.0 km/h 92 % 0.5 mm 0 W/m2
21:40 17.9 °C 16.7 °C 1012.8 hPa SW 11.3 km/h 27.4 km/h 93 % 0.5 mm 0 W/m2
21:45 17.8 °C 16.6 °C 1012.8 hPa Calm   22.5 km/h 93 % 0.5 mm 0 W/m2
21:50 17.8 °C 16.8 °C 1012.8 hPa SSW 16.1 km/h 22.5 km/h 94 % 0.5 mm 0 W/m2
21:55 17.8 °C 16.8 °C 1012.8 hPa SSW 19.3 km/h 25.7 km/h 94 % 0.5 mm 0 W/m2
22:00 17.7 °C 16.7 °C 1012.8 hPa WSW 12.9 km/h 25.7 km/h 94 % 0.8 mm 0 W/m2
22:05 17.8 °C 16.8 °C 1012.8 hPa South 9.7 km/h 22.5 km/h 94 % 1.0 mm 0 W/m2
22:10 17.8 °C 17.0 °C 1012.8 hPa WSW 3.2 km/h 20.9 km/h 95 % 1.0 mm 0 W/m2
22:15 17.8 °C 17.0 °C 1012.8 hPa SSW 11.3 km/h 20.9 km/h 95 % 1.0 mm 0 W/m2
22:20 17.8 °C 17.0 °C 1012.8 hPa SSW 3.2 km/h 22.5 km/h 95 % 1.0 mm 0 W/m2
22:25 17.8 °C 17.0 °C 1012.8 hPa West 6.4 km/h 25.7 km/h 95 % 0.8 mm 0 W/m2
22:30 17.8 °C 17.0 °C 1012.8 hPa SSW 16.1 km/h 25.7 km/h 95 % 0.8 mm 0 W/m2
22:35 17.8 °C 17.0 °C 1012.8 hPa SW 8.0 km/h 24.1 km/h 95 % 0.5 mm 0 W/m2
22:40 17.8 °C 17.2 °C 1012.8 hPa WSW 12.9 km/h 30.6 km/h 96 % 0.5 mm 0 W/m2
22:45 17.9 °C 17.2 °C 1012.8 hPa SSW 19.3 km/h 30.6 km/h 96 % 0.5 mm 0 W/m2
22:55 17.9 °C 17.2 °C 1012.8 hPa South 12.9 km/h 27.4 km/h 96 % 0.5 mm 0 W/m2
23:00 17.9 °C 17.3 °C 1012.8 hPa SW 11.3 km/h 25.7 km/h 96 % 0.5 mm 0 W/m2
23:05 18.0 °C 17.4 °C 1012.8 hPa SW 17.7 km/h 22.5 km/h 96 % 0.3 mm 0 W/m2
23:10 18.0 °C 17.4 °C 1012.8 hPa SSW 8.0 km/h 24.1 km/h 96 % 0.3 mm 0 W/m2
23:15 18.1 °C 17.4 °C 1012.8 hPa WSW 9.7 km/h 25.7 km/h 96 % 0.3 mm 0 W/m2
23:20 18.1 °C 17.4 °C 1012.8 hPa SSW 8.0 km/h 25.7 km/h 96 % 0.3 mm 0 W/m2
23:25 18.1 °C 17.4 °C 1012.8 hPa SSW 6.4 km/h 24.1 km/h 96 % 0.5 mm 0 W/m2
23:30 18.1 °C 17.4 °C 1012.8 hPa SW 1.6 km/h 24.1 km/h 96 % 0.5 mm 0 W/m2
23:35 18.1 °C 17.5 °C 1012.8 hPa SSW 11.3 km/h 22.5 km/h 96 % 0.5 mm 0 W/m2
23:40 18.2 °C 17.7 °C 1012.8 hPa SSW 6.4 km/h 27.4 km/h 97 % 0.5 mm 0 W/m2
23:45 18.2 °C 17.6 °C 1012.8 hPa WSW 4.8 km/h 27.4 km/h 96 % 0.5 mm 0 W/m2
23:50 18.3 °C 17.8 °C 1012.8 hPa WSW 12.9 km/h 19.3 km/h 97 % 0.3 mm 0 W/m2
23:55 18.3 °C 17.8 °C 1012.4 hPa SSW 8.0 km/h 20.9 km/h 97 % 0.3 mm 0 W/m2
Avec l'autorisation de Weather Underground - 1.75 mb